Location: Cluj-Napoca
(46.7712°N, 23.6236°E)
Time: 17:46:30
(UTC+02:00)

First-Move - Visible Passes

Search period start: 28 November 2021 00:00
Search period end: 08 December 2021 00:00
Orbit: 575 x 665 km, 97.6° (Epoch: 28 November)

Date Brightness Start Highest point End Pass type
(mag) Time Alt. Az. Time Alt. Az. Time Alt. Az.
28 Nov ? 04:04:45 10° NE 04:05:39 14° NE 04:05:39 14° NE visible
28 Nov ? 05:40:26 10° N 05:42:47 27° NNW 05:42:47 27° NNW visible
29 Nov ? 04:21:40 10° NNE 04:22:51 17° NE 04:22:51 17° NE visible
29 Nov ? 05:57:57 10° N 06:00:00 22° NNW 06:00:00 22° NNW visible
30 Nov ? 04:38:43 10° NNE 04:40:03 19° NNE 04:40:03 19° NNE visible
30 Nov ? 06:15:36 10° NNW 06:17:13 17° NW 06:17:13 17° NW visible
30 Nov ? 17:13:57 10° SW 17:16:39 17° W 17:19:25 10° NW visible
01 Dec ? 04:55:54 10° NNE 04:57:18 20° NNE 04:57:18 20° NNE visible
01 Dec ? 06:33:30 10° NNW 06:34:26 13° NW 06:34:26 13° NW visible
01 Dec ? 17:32:57 10° WSW 17:34:08 11° W 17:35:19 10° WNW visible
02 Dec ? 05:13:10 10° N 05:14:32 19° N 05:14:32 19° N visible
03 Dec ? 05:30:32 10° N 05:31:46 18° N 05:31:46 18° N visible
04 Dec ? 05:47:59 10° N 05:49:01 16° N 05:49:01 16° N visible
05 Dec ? 04:28:59 10° NNE 04:29:08 11° NNE 04:29:08 11° NNE visible
05 Dec ? 06:05:33 10° N 06:06:17 14° NNW 06:06:17 14° NNW visible
06 Dec ? 04:46:06 10° NNE 04:46:24 12° NNE 04:46:24 12° NNE visible
06 Dec ? 06:23:17 10° NNW 06:23:33 11° NNW 06:23:33 11° NNW visible
06 Dec ? 17:21:50 10° WSW 17:24:09 14° W 17:26:29 10° NW visible
07 Dec ? 05:03:19 10° NNE 05:03:40 12° NNE 05:03:40 12° NNE visible
